Weather History for Harlan, KY

Change the Weather History Date:

Sunday, December 9, 2012

  Actual Average (KLOZ) Record (KLOZ)
Temperature  
Mean Temperature 58 °F 40 °F  
Max Temperature 64 °F 49 °F 68 °F (2007)
Min Temperature 53 °F 31 °F 10 °F (1976)
Degree Days  
Heating Degree Days 6 25  
Month to date heating degree days 216  
Since 1 July heating degree days 1046  
Cooling Degree Days 0 0  
Month to date cooling degree days 0  
Growing Degree Days 8 (Base 50)    
Moisture  
Dew Point 53 °F    
Average Humidity 82    
Maximum Humidity 100    
Minimum Humidity 63    
Precipitation  
Precipitation 0.00 in 0.16 in 1.81 in (1961)
Month to date precipitation 1.31  
Sea Level Pressure  
Sea Level Pressure 29.98 in    
Wind  
Wind Speed 2 mph (South)    
Max Wind Speed 10 mph    
Max Gust Speed 18 mph    
Visibility 8 miles    
Events      
T = Trace of Precipitation, MM = Missing Value Source: NWS Daily Summary

Daily Weather History Graph

Daily Weather History Graph

Search for Another Location

Airport:

Trip Planner

Search our weather history database for the weather conditions in past years. The results will help you decide how hot, cold, wet, or windy it might be!

Date:

Astronomy

Dec. 09, 2012 Rise Set
Actual Time 7:35 AM EST 5:17 PM EST
Civil Twilight 7:06 AM EST 5:45 PM EST
Nautical Twilight 6:33 AM EST 6:18 PM EST
Astronomical Twilight 6:02 AM EST 6:49 PM EST
Moon 3:11 AM EST (12/9) 2:19 PM EST (12/9)
Length of Visible Light 10h 39m
Length of Day
9h 41m
Waning Crescent, 19% of the Moon is Illuminated
Dec 9
Waning Crescent
Dec 13
New
Dec 20
First Quarter
Dec 28
Full
Jan 4
Last Quarter

Hourly Weather History & Observations

Time (EST) Temp. Dew Point Humidity Pressure Visibility Wind Dir Wind Speed Gust Speed Precip Events Conditions
12:15 AM 59.0 °F 51.8 °F 77% 30.01 in 10.0 mi North - - N/A   Overcast
12:35 AM 59.0 °F 51.8 °F 77% 30.01 in 10.0 mi WNW 3.5 mph - N/A   Overcast
12:55 AM 59.0 °F 51.8 °F 77% 30.01 in 10.0 mi Calm Calm - N/A   Overcast
1:15 AM 59.0 °F 51.8 °F 77% 30.01 in 10.0 mi Calm Calm - N/A   Overcast
1:35 AM 59.0 °F 51.8 °F 77% 30.01 in 10.0 mi Calm Calm - N/A   Overcast
2:15 AM 59.0 °F 51.8 °F 77% 30.01 in 10.0 mi Calm Calm - N/A   Overcast
2:35 AM 59.0 °F 51.8 °F 77% 30.01 in 10.0 mi Calm Calm - N/A   Overcast
2:55 AM 57.2 °F 53.6 °F 88% 30.02 in 7.0 mi WNW 6.9 mph - N/A   Overcast
3:15 AM 57.2 °F 53.6 °F 88% 30.02 in 10.0 mi Calm Calm - N/A   Overcast
3:35 AM 57.2 °F 53.6 °F 88% 30.01 in 10.0 mi Calm Calm - N/A   Overcast
3:55 AM 55.4 °F 53.6 °F 94% 30.01 in 10.0 mi Calm Calm - N/A   Overcast
4:15 AM 55.4 °F 53.6 °F 94% 29.99 in 7.0 mi North 3.5 mph - N/A   Mostly Cloudy
4:35 AM 55.4 °F 53.6 °F 94% 30.01 in 3.0 mi East 6.9 mph - N/A   Mostly Cloudy
4:55 AM 55.4 °F 53.6 °F 94% 30.01 in 4.0 mi Calm Calm - N/A   Mostly Cloudy
5:15 AM 53.6 °F 53.6 °F 100% 30.01 in 2.5 mi Calm Calm - N/A   Mostly Cloudy
5:35 AM 55.4 °F 53.6 °F 94% 30.02 in 5.0 mi East 6.9 mph - N/A   Overcast
5:55 AM 55.4 °F 53.6 °F 94% 30.02 in 4.0 mi East 4.6 mph - N/A   Overcast
6:15 AM 53.6 °F 53.6 °F 100% 30.02 in 3.0 mi ENE 3.5 mph - N/A   Overcast
6:35 AM 53.6 °F 53.6 °F 100% 30.03 in 0.5 mi Calm Calm - N/A   Overcast
6:55 AM 53.6 °F 53.6 °F 100% 30.03 in 1.8 mi Calm Calm - N/A   Overcast
7:15 AM 53.6 °F 53.6 °F 100% 30.03 in 0.8 mi Calm Calm - N/A   Overcast
7:35 AM 53.6 °F 53.6 °F 100% 30.03 in 0.5 mi Calm Calm - N/A   Overcast
7:55 AM 53.6 °F 53.6 °F 100% 30.03 in 1.0 mi Calm Calm - N/A   Overcast
8:15 AM 55.4 °F 53.6 °F 94% 30.03 in 2.5 mi Calm Calm - N/A   Overcast
8:35 AM 55.4 °F 53.6 °F 94% 30.03 in 5.0 mi East 3.5 mph - N/A   Overcast
8:55 AM 55.4 °F 53.6 °F 94% 30.03 in 7.0 mi Calm Calm - N/A   Overcast
9:15 AM 55.4 °F 53.6 °F 94% 30.03 in 7.0 mi Calm Calm - N/A   Overcast
9:35 AM 59.0 °F 55.4 °F 88% 30.03 in 10.0 mi Calm Calm - N/A   Overcast
9:55 AM 59.0 °F 55.4 °F 88% 30.03 in 10.0 mi Calm Calm - N/A   Overcast
10:15 AM 60.8 °F 53.6 °F 77% 30.03 in 10.0 mi Calm Calm - N/A   Overcast
10:35 AM 60.8 °F 53.6 °F 77% 30.03 in 10.0 mi Calm Calm - N/A   Overcast
10:55 AM 62.6 °F 55.4 °F 77% 30.03 in 10.0 mi Calm Calm - N/A   Overcast
11:15 AM 60.8 °F 53.6 °F 77% 30.02 in 10.0 mi Calm Calm - N/A   Overcast
11:35 AM 62.6 °F 53.6 °F 72% 30.01 in 10.0 mi Calm Calm - N/A   Overcast
11:55 AM 62.6 °F 51.8 °F 68% 30.00 in 10.0 mi South 3.5 mph - N/A   Overcast
12:15 PM 62.6 °F 53.6 °F 72% 29.99 in 10.0 mi SE 3.5 mph - N/A   Overcast
12:35 PM 64.4 °F 51.8 °F 64% 29.97 in 10.0 mi SSE 6.9 mph - N/A   Overcast
12:55 PM 64.4 °F 53.6 °F 68% 29.97 in 10.0 mi Calm Calm - N/A   Overcast
1:15 PM 64.4 °F 51.8 °F 64% 29.96 in 10.0 mi South 3.5 mph - N/A   Overcast
1:35 PM 64.4 °F 51.8 °F 64% 29.96 in 10.0 mi SSE 5.8 mph - N/A   Overcast
1:55 PM 64.4 °F 51.8 °F 64% 29.95 in 10.0 mi SSW 10.4 mph - N/A   Overcast
2:15 PM 62.6 °F 51.8 °F 68% 29.96 in 10.0 mi West 9.2 mph - N/A   Overcast
2:35 PM 59.0 °F 55.4 °F 88% 29.97 in 4.0 mi WSW 5.8 mph 18.4 mph N/A   Overcast
2:55 PM 59.0 °F 55.4 °F 88% 29.97 in 7.0 mi Calm Calm - N/A   Overcast
3:15 PM 59.0 °F 55.4 °F 88% 29.96 in 7.0 mi Calm Calm - N/A   Overcast
3:35 PM 59.0 °F 55.4 °F 88% 29.96 in 5.0 mi Calm Calm - N/A   Overcast
3:55 PM 59.0 °F 57.2 °F 94% 29.96 in 0.5 mi Calm Calm - N/A   Overcast
4:15 PM 59.0 °F 55.4 °F 88% 29.96 in 7.0 mi Calm Calm - N/A   Overcast
4:35 PM 59.0 °F 55.4 °F 88% 29.96 in 10.0 mi Calm Calm - N/A   Overcast
4:55 PM 59.0 °F 55.4 °F 88% 29.96 in 7.0 mi Calm Calm - N/A   Overcast
5:15 PM 59.0 °F 55.4 °F 88% 29.96 in 10.0 mi Calm Calm - N/A   Overcast
5:35 PM 59.0 °F 55.4 °F 88% 29.95 in 10.0 mi Calm Calm - N/A   Overcast
5:55 PM 59.0 °F 55.4 °F 88% 29.95 in 10.0 mi Calm Calm - N/A   Overcast
6:15 PM 60.8 °F 55.4 °F 82% 29.95 in 10.0 mi Calm Calm - N/A   Overcast
6:35 PM 59.0 °F 53.6 °F 82% 29.94 in 10.0 mi Calm Calm - N/A   Overcast
6:55 PM 59.0 °F 53.6 °F 82% 29.94 in 10.0 mi Calm Calm - N/A   Overcast
7:15 PM 59.0 °F 53.6 °F 82% 29.94 in 10.0 mi Calm Calm - N/A   Overcast
7:35 PM 60.8 °F 53.6 °F 77% 29.94 in 10.0 mi Calm Calm - N/A   Overcast
7:55 PM 60.8 °F 53.6 °F 77% 29.93 in 10.0 mi Calm Calm - N/A   Overcast
8:15 PM 60.8 °F 53.6 °F 77% 29.92 in 10.0 mi Calm Calm - N/A   Overcast
8:35 PM 62.6 °F 51.8 °F 68% 29.92 in 10.0 mi Calm Calm - N/A   Overcast
8:55 PM 62.6 °F 51.8 °F 68% 29.91 in 10.0 mi Calm Calm - N/A   Overcast
9:15 PM 62.6 °F 51.8 °F 68% 29.91 in 10.0 mi South 3.5 mph - N/A   Overcast
9:35 PM 62.6 °F 51.8 °F 68% 29.91 in 10.0 mi Calm Calm - N/A   Overcast
9:55 PM 62.6 °F 51.8 °F 68% 29.91 in 10.0 mi Calm Calm - N/A   Overcast
10:15 PM 62.6 °F 51.8 °F 68% 29.90 in 10.0 mi South 8.1 mph - N/A   Overcast
10:35 PM 62.6 °F 51.8 °F 68% 29.90 in 10.0 mi West 5.8 mph - N/A   Overcast
10:55 PM 62.6 °F 50.0 °F 63% 29.90 in 10.0 mi SSW 10.4 mph - N/A   Overcast
11:15 PM 62.6 °F 51.8 °F 68% 29.89 in 10.0 mi Calm Calm - N/A   Overcast
11:35 PM 62.6 °F 50.0 °F 63% 29.89 in 10.0 mi Calm Calm - N/A   Overcast
11:55 PM 62.6 °F 50.0 °F 63% 29.88 in 10.0 mi SSW 4.6 mph - N/A   Overcast